Location: ?????
(55.6500°N, 37.2500°E)
Time: 16:25:05
(UTC+00:00)

Cosmos 2360 Rocket - Pass Details

Date: 19 May 2025
Orbit: 834 x 842 km, 71.0° (Epoch: 20 June)

Event Time Altitude Azimuth Distance (km) Brightness Sun altitude
Rises 23:10:53 0° 315° (NW) 3,394 5.6 -11.3°
Reaches altitude 10° 23:15:06 10° 285° (WNW) 2,453 4.5 -11.0°
Maximum altitude 23:16:57 12° 266° (W) 2,331 4.2 -10.9°
Drops below altitude 10° 23:18:49 10° 246° (WSW) 2,448 4.2 -10.8°
Enters shadow 23:19:32 - 239° (WSW) 2,553 4.2 -10.7°
